EW1107 Weather Reports


time (UTC)temp
F
wind
direction
speed
knots
gust
knots
rain 1hr
in
rain 24hr
in
rain mn
in
humidity
%
barometer
mb
20260508064529 47 329 0.9 7.0 0.00 0.01 0.00 95 1016.9
20260508064025 47 289 2.6 8.7 0.00 0.01 0.00 95 1016.9
20260508063526 47 360 4.3 9.6 0.00 0.01 0.00 95 1016.8
20260508063026 47 325 6.1 9.6 0.00 0.01 0.00 95 1016.8
20260508062522 47 323 0.9 8.7 0.00 0.01 0.00 95 1016.8
20260508062021 46 321 5.2 8.7 0.00 0.01 0.00 95 1016.7
20260508061521 47 5 0.9 9.6 0.00 0.01 0.00 95 1016.7
20260508061020 47 328 0.9 9.6 0.00 0.01 0.00 95 1016.6
20260508060520 47 342 3.5 9.6 0.00 0.01 0.00 95 1016.6
20260508060019 46 348 3.5 7.8 0.00 0.01 0.00 95 1016.5
20260508055518 46 323 3.5 9.6 0.00 0.04 0.00 95 1016.6
20260508055017 46 345 5.2 9.6 0.00 0.04 0.00 94 1016.6
20260508054516 46 360 4.3 9.6 0.00 0.04 0.00 95 1016.6
20260508054015 46 295 1.7 7.8 0.00 0.04 0.00 95 1016.7
20260508053516 46 339 0.0 7.8 0.00 0.04 0.00 94 1016.6
20260508053016 46 330 3.5 7.8 0.00 0.04 0.00 94 1016.5
20260508052012 46 312 5.2 9.6 0.00 0.04 0.00 94 1016.5
20260508051513 46 355 0.9 9.6 0.00 0.04 0.00 94 1016.5
20260508051012 46 330 1.7 7.8 0.00 0.04 0.00 94 1016.6
20260508050512 46 326 5.2 7.8 0.00 0.04 0.00 94 1016.5
20260508050011 46 331 2.6 10.4 0.00 0.04 0.00 94 1016.5
20260508045511 46 313 1.7 10.4 0.00 0.04 0.00 94 1016.5
20260508045011 46 315 2.6 8.7 0.00 0.04 0.00 94 1016.5
20260508044513 46 321 4.3 8.7 0.00 0.04 0.00 94 1016.4
20260508044011 46 299 2.6 7.8 0.00 0.04 0.00 94 1016.4
20260508043509 46 291 2.6 6.1 0.00 0.04 0.00 94 1016.4
20260508043009 46 303 1.7 7.0 0.00 0.04 0.00 94 1016.4
20260508042539 46 300 1.7 7.0 0.00 0.04 0.00 94 1016.4
20260508042046 46 316 1.7 7.8 0.00 0.04 0.00 93 1016.2
20260508041546 46 313 2.6 7.8 0.00 0.04 0.00 93 1016.1
20260508041045 46 355 0.0 7.8 0.00 0.04 0.00 93 1016.0
20260508040544 46 355 1.7 7.8 0.00 0.04 0.00 93 1016.0
20260508040044 46 327 1.7 5.2 0.00 0.04 0.00 93 1015.8
20260508035543 46 344 2.6 9.6 0.00 0.06 0.00 93 1015.8
20260508035044 46 336 4.3 9.6 0.00 0.06 0.00 93 1015.8
20260508034542 46 317 3.5 7.8 0.00 0.06 0.00 93 1015.8
20260508034041 46 355 1.7 7.8 0.00 0.06 0.00 93 1015.8
20260508033541 46 325 0.0 5.2 0.00 0.06 0.00 92 1015.8
20260508033041 46 10 0.0 7.0 0.00 0.06 0.00 92 1015.8
20260508032541 46 355 0.9 7.8 0.00 0.06 0.00 92 1015.8
20260508032040 46 339 1.7 7.8 0.00 0.06 0.00 92 1015.7
20260508031550 46 336 2.6 11.3 0.00 0.06 0.00 92 1015.7
20260508031040 46 355 2.6 11.3 0.00 0.06 0.00 92 1015.7
20260508030541 46 342 4.3 12.2 0.00 0.06 0.00 91 1015.7
20260508030049 46 336 5.2 12.2 0.00 0.06 0.00 91 1015.6
20260508025538 46 15 6.1 11.3 0.00 0.06 0.00 91 1015.6
20260508025037 46 320 6.1 11.3 0.00 0.06 0.00 91 1015.6
20260508024538 46 5 3.5 11.3 0.00 0.06 0.00 91 1015.5
20260508024037 46 326 6.1 11.3 0.00 0.06 0.00 90 1015.5
20260508023536 47 360 7.0 13.0 0.00 0.06 0.00 90 1015.6
20260508023041 47 5 3.5 13.0 0.00 0.06 0.00 90 1015.6
20260508022535 47 355 0.0 4.3 0.00 0.06 0.00 90 1015.6
20260508022035 47 355 0.0 9.6 0.00 0.06 0.00 90 1015.6
20260508021537 47 5 1.7 12.2 0.00 0.06 0.00 89 1015.6
20260508021033 47 318 5.2 12.2 0.00 0.06 0.00 89 1015.6
20260508020533 47 355 5.2 13.0 0.00 0.06 0.00 89 1015.5
20260508020032 47 360 6.1 13.0 0.00 0.06 0.00 89 1015.6
20260508015632 47 21 5.2 13.0 0.00 0.06 0.00 89 1015.6
20260508015031 47 337 6.1 15.6 0.00 0.06 0.00 89 1015.5
20260508014531 47 277 10.4 15.6 0.00 0.06 0.00 88 1015.6
20260508014031 47 360 4.3 7.8 0.00 0.06 0.00 88 1015.5
20260508013530 47 348 1.7 11.3 0.00 0.06 0.00 88 1015.5
20260508013030 47 25 4.3 13.0 0.00 0.06 0.00 88 1015.6
20260508012529 47 317 7.0 16.5 0.00 0.06 0.00 88 1015.5
20260508012028 47 355 7.8 15.6 0.00 0.06 0.00 88 1015.6
20260508011529 47 355 1.7 12.2 0.00 0.06 0.00 88 1015.6
20260508011027 48 360 7.0 11.3 0.00 0.06 0.00 88 1015.6
20260508010526 48 346 1.7 11.3 0.00 0.06 0.00 88 1015.7
20260508010028 48 355 5.2 11.3 0.00 0.06 0.00 88 1015.7
20260508005526 48 342 6.1 11.3 0.00 0.06 0.00 88 1015.7
20260508005025 48 340 3.5 16.5 0.00 0.06 0.00 88 1015.7
20260508004528 48 5 7.8 18.2 0.00 0.06 0.00 88 1015.7
20260508004024 48 360 7.8 15.6 0.00 0.06 0.00 88 1015.7
20260508003523 48 338 8.7 15.6 0.00 0.06 0.00 88 1015.5
20260508003022 48 308 8.7 15.6 0.00 0.06 0.00 88 1015.5
20260508002521 48 316 10.4 20.0 0.00 0.06 0.00 88 1015.4
20260508002020 48 344 10.4 20.0 0.00 0.06 0.00 88 1015.2
20260508001519 48 343 8.7 14.8 0.00 0.06 0.00 88 1015.4
20260508001018 48 344 1.7 14.8 0.00 0.06 0.00 88 1015.4
20260508000521 49 5 4.3 14.8 0.00 0.06 0.00 88 1015.3
20260508000016 49 5 6.1 13.0 0.00 0.06 0.00 88 1015.3
20260507235517 49 360 5.2 14.8 0.00 0.06 0.00 88 1015.3
20260507235115 49 340 9.6 14.8 0.00 0.06 0.00 88 1015.3
20260507234514 49 5 5.2 13.0 0.00 0.06 0.00 88 1015.3
20260507234016 49 355 3.5 15.6 0.00 0.06 0.00 88 1015.2
20260507233515 49 343 9.6 16.5 0.00 0.06 0.00 88 1015.3
20260507233014 49 333 8.7 17.4 0.00 0.06 0.00 88 1015.2
20260507232512 49 329 7.8 13.9 0.00 0.06 0.00 88 1015.2
20260507232010 49 331 4.3 11.3 0.00 0.06 0.00 88 1015.2
20260507231516 49 9 3.5 13.0 0.00 0.06 0.00 88 1015.1
20260507231010 49 331 6.1 13.0 0.00 0.06 0.00 88 1015.1
20260507230510 49 327 5.2 12.2 0.00 0.06 0.00 88 1015.2
20260507230009 49 350 2.6 12.2 0.00 0.06 0.00 88 1015.2
20260507225512 49 355 3.5 12.2 0.00 0.08 0.00 88 1015.1
20260507225010 49 360 7.0 13.0 0.00 0.08 0.00 88 1015.0
20260507224508 49 9 5.2 14.8 0.00 0.08 0.00 88 1015.0
20260507224107 49 360 7.0 14.8 0.00 0.08 0.00 88 1015.0
20260507223508 49 360 5.2 11.3 0.00 0.08 0.00 89 1015.1
20260507223007 49 17 2.6 10.4 0.00 0.08 0.00 89 1015.1
20260507222605 49 11 4.3 10.4 0.00 0.08 0.00 89 1015.1
20260507222007 49 9 4.3 13.0 0.00 0.08 0.00 89 1014.9
20260507221506 49 5 7.0 13.0 0.00 0.08 0.00 89 1014.9
20260507221001 49 315 7.0 13.0 0.00 0.08 0.00 89 1014.8
20260507220600 49 355 1.7 9.6 0.00 0.08 0.00 90 1014.8
20260507220502 49 355 3.5 13.9 0.00 0.08 0.00 90 1014.7
20260507220059 49 360 3.5 13.9 0.00 0.08 0.00 90 1014.8
20260507215559 49 350 7.8 13.9 0.00 0.14 0.08 90 1014.7
20260507215100 49 323 5.2 13.9 0.00 0.14 0.08 90 1014.7
20260507214657 49 339 5.2 13.0 0.00 0.14 0.08 90 1014.8
20260507214057 49 5 7.0 12.2 0.00 0.14 0.08 90 1014.7
20260507213557 50 320 4.3 12.2 0.00 0.14 0.08 90 1014.7
20260507213101 50 334 4.3 9.6 0.00 0.14 0.08 90 1014.7
20260507212556 50 30 0.9 13.0 0.00 0.14 0.08 90 1014.7
20260507212054 50 19 4.3 11.3 0.00 0.14 0.08 90 1014.6
20260507211558 50 360 2.6 12.2 0.00 0.14 0.08 90 1014.7
20260507211053 50 355 6.1 12.2 0.00 0.14 0.08 90 1014.7
20260507210553 50 344 5.2 9.6 0.00 0.14 0.08 90 1014.7
20260507210053 50 5 4.3 9.6 0.00 0.14 0.08 91 1014.8
20260507205553 50 19 4.3 9.6 0.00 0.14 0.08 90 1014.9
20260507205057 50 58 2.6 12.2 0.00 0.14 0.08 91 1014.9
20260507204557 50 343 7.0 12.2 0.00 0.14 0.08 90 1014.8
20260507204054 50 346 5.2 11.3 0.00 0.14 0.08 90 1014.7
20260507203551 50 339 5.2 12.2 0.00 0.14 0.08 90 1014.7
20260507203049 50 327 7.8 12.2 0.00 0.14 0.08 90 1014.5
20260507202549 50 333 3.5 11.3 0.00 0.14 0.08 90 1014.5
20260507202049 50 335 3.5 11.3 0.00 0.14 0.08 90 1014.5
20260507201555 50 5 5.2 11.3 0.00 0.14 0.08 90 1014.5
20260507201048 50 355 3.5 9.6 0.00 0.14 0.08 90 1014.5
20260507200547 50 311 1.7 7.0 0.00 0.14 0.08 90 1014.5
20260507200051 50 329 0.0 11.3 0.00 0.14 0.08 90 1014.4
20260507195547 50 355 3.5 11.3 0.00 0.14 0.08 90 1014.3
20260507195045 51 360 2.6 7.8 0.00 0.14 0.08 90 1014.2
20260507194550 51 351 0.9 13.0 0.00 0.14 0.08 90 1014.2
20260507194147 51 5 7.0 13.0 0.00 0.14 0.08 90 1014.1
20260507193543 50 347 3.5 7.8 0.00 0.14 0.08 90 1014.1
20260507193043 50 5 2.6 13.0 0.00 0.14 0.08 90 1014.1
20260507192543 51 355 8.7 13.0 0.00 0.14 0.08 90 1014.0
20260507192043 50 355 4.3 11.3 0.00 0.14 0.08 90 1014.0
20260507191552 51 5 4.3 13.9 0.00 0.14 0.08 90 1014.1
20260507191041 51 327 7.0 13.9 0.00 0.14 0.08 89 1014.1
20260507190541 51 17 5.2 13.0 0.00 0.14 0.08 89 1014.0
20260507190040 51 5 7.0 14.8 0.00 0.14 0.08 89 1013.8
20260507184538 51 360 8.7 14.8 0.00 0.14 0.08 89 1013.5
20260507184036 51 360 6.1 12.2 0.00 0.14 0.08 89 1013.5
20260507182033 51 344 3.5 13.0 0.00 0.14 0.08 89 1013.2
20260507180529 52 321 1.7 11.3 0.00 0.14 0.08 89 1013.1
20260507180130 52 42 1.7 13.0 0.00 0.14 0.08 89 1013.0
20260507175528 52 355 7.0 16.5 0.00 0.14 0.08 89 1013.0
20260507174004 52 355 5.2 12.2 0.00 0.14 0.08 89 1012.9
20260507173504 52 5 4.3 14.8 0.00 0.14 0.08 88 1013.0
20260507173006 52 360 2.6 14.8 0.00 0.14 0.08 88 1012.9
20260507171042 52 5 4.3 11.3 0.00 0.14 0.08 88 1012.6
20260507170540 52 11 0.9 11.3 0.00 0.14 0.08 88 1012.7
20260507170039 52 355 2.6 11.3 0.00 0.14 0.08 88 1012.5
20260507165537 53 13 0.0 7.8 0.00 0.14 0.08 88 1012.4
20260507165521 53 13 0.9 9.6 0.00 0.14 0.08 88 1012.3
20260507164509 53 5 1.7 10.4 0.00 0.14 0.08 88 1012.2
20260507162105 53 9 6.1 18.2 0.00 0.14 0.08 87 1011.9
20260507124550 60 355 0.0 1.7 0.00 0.14 0.08 82 1011.2
20260507124048 59 23 0.0 0.9 0.00 0.14 0.08 82 1011.1
20260507123547 59 34 0.0 7.8 0.00 0.14 0.08 82 1011.2
20260507123103 59 19 0.0 8.7 0.00 0.14 0.08 81 1011.2
20260507122547 60 5 1.7 9.6 0.00 0.14 0.08 82 1011.1
20260507122049 60 15 4.3 11.3 0.00 0.14 0.08 82 1011.0
20260507121546 59 36 2.6 9.6 0.00 0.14 0.08 83 1011.0
20260507121046 59 13 4.3 9.6 0.00 0.14 0.08 83 1011.1
20260507120045 59 30 0.9 8.7 0.00 0.14 0.08 84 1011.0
20260507115545 58 36 0.9 8.7 0.00 0.14 0.08 85 1011.1
20260507115044 58 349 1.7 7.8 0.00 0.14 0.08 85 1011.1
20260507114551 58 332 0.0 7.0 0.00 0.14 0.08 85 1011.1
20260507114040 58 52 0.0 0.9 0.00 0.14 0.08 85 1011.2
20260507113540 57 30 0.0 0.9 0.00 0.14 0.08 85 1011.1
20260507113039 57 136 0.0 5.2 0.00 0.14 0.08 84 1011.2
20260507112538 58 65 1.7 8.7 0.00 0.14 0.08 84 1011.1
20260507111024 56 44 0.9 10.4 0.00 0.14 0.08 88 1011.0
20260507110523 56 25 1.7 7.0 0.00 0.14 0.08 89 1011.0
20260507094550 54 304 0.0 11.3 0.00 0.14 0.08 94 1010.2
20260507094048 53 337 3.5 11.3 0.00 0.14 0.08 95 1010.2
20260507093647 53 11 2.6 9.6 0.00 0.14 0.08 95 1010.1
20260507092547 53 351 3.5 10.4 0.00 0.14 0.08 95 1010.0
20260507092047 53 317 0.9 10.4 0.00 0.14 0.08 96 1010.0
20260507091546 53 349 3.5 11.3 0.00 0.14 0.08 96 1010.0
20260507091045 52 355 3.5 11.3 0.00 0.14 0.08 95 1010.0
20260507090545 52 355 3.5 9.6 0.00 0.14 0.08 96 1009.9
20260507090055 52 329 0.9 10.4 0.00 0.14 0.08 96 1009.9
20260507085544 52 322 6.1 12.2 0.00 0.14 0.08 95 1009.8
20260507085043 52 14 4.3 12.2 0.00 0.14 0.08 96 1009.7
20260507084549 52 331 5.2 12.2 0.00 0.14 0.08 96 1009.6
20260507084040 52 360 0.9 14.8 0.00 0.14 0.08 96 1009.4
20260507083641 52 355 1.7 14.8 0.00 0.14 0.08 96 1009.4
20260507083038 51 355 7.0 12.2 0.00 0.14 0.08 96 1009.3
20260507082536 51 325 4.3 12.2 0.00 0.14 0.08 96 1009.3
20260507082036 51 311 5.2 14.8 0.00 0.14 0.08 96 1009.3
20260507081536 51 360 2.6 14.8 0.00 0.14 0.08 96 1009.3
20260507081035 51 5 5.2 14.8 0.00 0.14 0.08 96 1009.1
20260507080535 51 360 6.1 15.6 0.00 0.14 0.08 95 1009.1
20260507080033 51 333 7.8 15.6 0.00 0.14 0.08 95 1009.0
20260507075532 51 324 3.5 9.6 0.00 0.14 0.08 96 1009.1
20260507075031 51 317 3.5 9.6 0.00 0.14 0.08 96 1009.0
20260507074530 51 323 3.5 14.8 0.01 0.14 0.08 95 1009.0
20260507074028 51 340 7.0 14.8 0.01 0.14 0.08 96 1009.0
20260507073528 51 326 5.2 13.0 0.01 0.14 0.08 95 1009.0
20260507073030 51 338 5.2 13.0 0.01 0.14 0.08 95 1008.8
20260507072528 51 329 6.1 13.9 0.01 0.14 0.08 95 1008.8
20260507072026 52 330 7.8 13.0 0.01 0.14 0.08 95 1008.7
20260507071531 52 355 4.3 12.2 0.01 0.14 0.08 95 1008.7
20260507071027 52 360 5.2 13.9 0.01 0.14 0.08 95 1008.5
20260507070522 53 324 7.0 13.9 0.01 0.14 0.08 95 1008.5
20260507070020 53 5 0.9 10.4 0.01 0.14 0.08 96 1008.3
20260507065519 53 5 1.7 13.9 0.01 0.14 0.08 96 1008.2
20260507065018 53 351 7.8 13.9 0.01 0.14 0.08 95 1008.1